Flag for Switzerland Weather past 2 weeks in Martigny, Valais, Switzerland

Now
58 °F

Cool.


Feels Like: 58 °F
Forecast: 53 / 77 °F
Wind: 1 mph from West

Location: Sion

Current Time: Oct 1, 2014 at 10:36:08 AM

Latest Report: Oct 1, 2014 at 9:00 AM


Visibility: N/A

Pressure: 30.31 "Hg

Humidity: 94%

Dew point: 56 °F

Location of MartignyLocation

Historic Weather in Martigny — Graph

°F

Martigny temperature yesterday

Maximum temperature yesterday: 63 °F (at 5:00 PM)
Minimum temperature yesterday: 57 °F (at 4:00 AM)
Average temperature yesterday: 60 °F

Past Weeks' High & Low Weather Summary

 TemperatureHumidityPressure
High79 °F (Sep 16, 4:00 PM)98% (Sep 30, 11:00 PM)30.37 "Hg (Sep 30, 11:00 PM)
Low44 °F (Sep 23, 6:00 AM)38% (Sep 23, 3:00 PM)29.81 "Hg (Sep 17, 4:00 PM)
Average61 °F73%30.10 "Hg
* Reported Sep 16 9:00 AM — Oct 1 9:00 AM, Martigny, Weather by CustomWeather, © 2014

Note: Actual official high and low records may vary slightly from our data, if they occured in-between our weather recording intervals... More about our weather records

Advertising

Martigny weather history for previous 24 hours

 ConditionsComfort  
Time TempWeatherWind HumidityBarometerVisibility
9:00 AM
Oct 1
58 °FCool.1 mph94%30.31 "HgN/A
8:00 AM57 °FOvercast.No wind95%30.30 "Hg9 mi
7:00 AM57 °FCool.2 mph96%30.30 "HgN/A
6:00 AM57 °FCool.No wind95%30.30 "HgN/A
5:00 AM57 °FOvercast.1 mph94%30.30 "Hg12 mi
4:00 AM57 °FCool.1 mph94%30.30 "HgN/A
3:00 AM58 °FCool.2 mph95%30.31 "HgN/A
2:00 AM59 °FOvercast.2 mph92%30.31 "Hg12 mi
1:00 AM58 °FCool.1 mph94%30.30 "HgN/A
12:00 AM58 °FCool.2 mph94%30.32 "HgN/A
11:00 PM
Sep 30
58 °FOvercast.1 mph98%30.32 "Hg12 mi
10:00 PM59 °FCool.1 mph96%30.32 "HgN/A
9:00 PM59 °FCool.No wind95%30.32 "HgN/A
8:00 PM60 °FOvercast.1 mph95%30.30 "Hg12 mi
7:00 PM61 °FCool.1 mph91%30.30 "HgN/A
6:00 PM63 °FMild.No wind85%30.29 "HgN/A
5:00 PM63 °FOvercast.No wind85%30.29 "Hg12 mi
4:00 PM62 °FMild.1 mph84%30.30 "HgN/A
3:00 PM61 °FCool.1 mph87%30.32 "HgN/A
2:00 PM61 °FRain. Overcast.No wind89%30.33 "Hg9 mi
1:00 PM61 °FCool.2 mph90%30.34 "HgN/A
12:00 PM60 °FCool.2 mph82%30.33 "HgN/A
11:00 AM61 °FOvercast.3 mph82%30.33 "Hg12 mi
10:00 AM61 °FCool.2 mph78%30.32 "HgN/A
Weather by CustomWeather, © 2014

See weather overviewHow to use our weather pages